sat.trackr.live / text

‹ back to catalog

STARLINK-6333

NORAD 56521 · 2023-065U

PAYLOAD ACTIVE UNKNOWN

§ Identity

Operator
Country
US
Launch date
2023-05-14
Launch site
AFETR
Launch vehicle
Mass (kg)
RCS (m²)

Purposes: comms

External: N2YO · Heavens-Above · Gunter

§ Orbital elements

Epoch: 2026-09-19T22:17:53.357856Z

Period
94.27 min
Inclination
43.0016°
Eccentricity
0.0000543
Mean motion
15.27575168 rev/d
Perigee alt
482.7 km
Apogee alt
483.4 km
Semi-major
6,861.2 km
B*
2.8242e-6
RAAN
199.1287°
Arg perigee
203.5429°
Mean anomaly
156.5398°
Rev number
18,626

§ Raw data

STARLINK-63331 56521U 23065U   26262.92908979 -.00000184  00000+0  28242-5 0  99922 56521  43.0016 199.1287 0000543 203.5429 156.5398 15.27575168186266

JSON: /api/v1/satellites/56521 · /tle

For live sub-satellite position, see the globe view (requires WebGL).

§ Visibility from observer

Set your observer location to see the next 7 days of passes ≥ 10°. The values pass through the URL so the page stays shareable.

No JS? Fill the form by hand. The geolocation button needs JavaScript.